Location: ??????
(55.6500°N, 37.8000°E)
Time: 18:32:50
(UTC+00:00)

NOSS 3-4 (A) - Pass Details

Date: 14 April 2024
Orbit: 806 x 1405 km, 63.4° (Epoch: 23 May)

Event Time Altitude Azimuth Distance (km) Brightness Sun altitude
Exits shadow 00:17:01 25° 230° (SW) 1,650 4.1 -16.1°
Maximum altitude 00:20:27 90° 138° (SE) 900 3.3 -15.8°
Drops below altitude 10° 00:26:48 10° 52° (NE) 2,751 7.2 -15.1°
Sets 00:29:34 0° 53° (NE) 3,793 8.5 -14.8°
